Content
SEND FEEDBACK

Daily
Averages
Monthly
Summary
France

RENNES, FRANCE


Home > Europe > France
Elevation: 121 feet     Latitude: 48 04N     Longitude: 001 43W

WEATHER
 
SELECT A DAY
Number of Records: 245,991;   Date Range: 7/1/96 - 11/25/14
 
SHARE

PRINT THIS DATA

[ ← Previous Day ]
WEATHER ALMANAC - MARCH 20, 2013
[ Next Day → ]
[ °C ]   °F
Weather ElementAverageHighLow
Temperature44.2 °F51.8 °F (1:00 pm)35.6 °F (1:00 am)
Dewpoint36.1 °F39.2 °F (8:30 am)32 °F (3:00 am)
Humidity74.2 %93 % (1:00 am)49 % (1:00 pm)
Barometer29.72 in29.95 in (9:30 pm)29.47 in (12:30 am)
Wind Speed7 mph16.1 mph (11:30 am)
Weather ElementAverage
Visibility7.9 mi
Wind DirectionWSW (239.6 °)

Weather ElementTotal
Precipitation---
Heating Degree Days21.3 (Base 65)
Averaged from 50 records on March 20, 2013
WEATHER CONDITIONS BREAKOUT
WIND DIRECTION BREAKOUT
WEATHER BY HOUR - MARCH 20, 2013
[ °C ]   °F
Local TimeTemperatureDewpointHumidityBarometerVisibilityWind DirectionWind SpeedGust SpeedPrecipitationEventsConditions
12:30 AM37.4 °F33.8 °F87 %29.47 in6.2 miSSW (210°)4.6 mph
1:00 AM36.0 °F33.0 °F87 %29.51 in37.0 miSW (220°)4.6 mphClear
1:00 AM35.6 °F33.8 °F93 %29.50 in6.2 miSW (220°)4.6 mph
1:30 AM35.6 °F33.8 °F93 %29.50 in6.2 miSW (220°)5.8 mph
2:00 AM35.6 °F33.8 °F93 %29.50 in6.2 miSW (220°)4.6 mph
2:30 AM35.6 °F33.8 °F93 %29.50 in6.2 miSW (220°)5.8 mph
3:00 AM35.6 °F32.0 °F87 %29.50 in6.2 miSSW (210°)4.6 mph
3:30 AM35.6 °F33.8 °F93 %29.50 in6.2 miSSW (210°)5.8 mph
4:00 AM35.6 °F33.8 °F93 %29.50 in6.2 miSW (220°)5.8 mph
4:30 AM37.4 °F33.8 °F87 %29.53 in6.2 miSSW (210°)5.8 mphMostly Cloudy
5:00 AM37.4 °F35.6 °F93 %29.53 in6.2 miSSW (200°)3.5 mphMostly Cloudy
5:30 AM37.4 °F35.6 °F93 %29.53 in6.2 miSouth (190°)3.5 mphOvercast
6:00 AM37.4 °F35.6 °F93 %29.53 in6.2 miVariable2.3 mphOvercast
6:30 AM37.4 °F35.6 °F93 %29.56 in6.2 miSSW (200°)3.5 mphMostly Cloudy
7:00 AM39.2 °F35.6 °F87 %29.56 in6.2 miSW (220°)4.6 mphOvercast
7:30 AM39.2 °F35.6 °F87 %29.59 in6.2 miWSW (250°)4.6 mphOvercast
8:00 AM39.2 °F37.4 °F93 %29.59 in6.2 miWest (270°)5.8 mphDrizzle
8:30 AM41.0 °F39.2 °F93 %29.62 in6.2 miWest (270°)8.1 mphOvercast
9:00 AM42.8 °F39.2 °F87 %29.65 in6.2 miWest (280°)9.2 mphOvercast
9:30 AM44.6 °F39.2 °F81 %29.65 in6.2 miWNW (290°)11.5 mphScattered Clouds
10:00 AM44.6 °F39.2 °F81 %29.68 in6.2 miWNW (300°)11.5 mphMostly Cloudy
10:30 AM46.4 °F39.2 °F76 %29.68 in6.2 miWNW (290°)12.7 mphMostly Cloudy
11:00 AM46.4 °F39.2 °F76 %29.71 in6.2 miWNW (300°)13.8 mphOvercast
11:30 AM50.0 °F39.2 °F66 %29.74 in6.2 miWNW (300°)16.1 mphMostly Cloudy
12:00 PM48.2 °F37.4 °F66 %29.74 in6.2 miWNW (300°)16.1 mphMostly Cloudy
12:30 PM50.0 °F37.4 °F62 %29.77 in6.2 miNW (310°)13.8 mphMostly Cloudy
1:00 PM51.0 °F38.0 °F49 %29.79 in34.0 miWNW (300°)15.0 mphClear
1:00 PM51.8 °F37.4 °F58 %29.77 in6.2 miWNW (300°)15.0 mphMostly Cloudy
1:30 PM51.8 °F35.6 °F54 %29.80 in6.2 miWNW (290°)11.5 mphMostly Cloudy
2:00 PM50.0 °F35.6 °F58 %29.80 in6.2 miWNW (300°)10.4 mphMostly Cloudy
2:30 PM51.8 °F35.6 °F54 %29.80 in6.2 miWSW (250°)8.1 mphMostly Cloudy
3:00 PM48.2 °F39.2 °F71 %29.80 in6.2 miNNW (340°)12.7 mphRainLight Rain
3:30 PM51.8 °F37.4 °F58 %29.80 in6.2 miNNW (340°)5.8 mphMostly Cloudy
4:00 PM51.8 °F37.4 °F58 %29.83 in6.2 miNNW (330°)9.2 mph
4:30 PM51.8 °F35.6 °F54 %29.83 in6.2 miNNW (330°)6.9 mph
5:00 PM51.8 °F33.8 °F50 %29.83 in6.2 miNorth (350°)5.8 mph
5:30 PM50.0 °F35.6 °F58 %29.83 in6.2 miVariable3.5 mph
6:00 PM50.0 °F35.6 °F58 %29.86 in6.2 miVariable3.5 mph
6:30 PM48.2 °F37.4 °F66 %29.86 in6.2 miSouth (190°)3.5 mph
7:00 PM49.0 °F37.0 °F52 %29.90 in31.0 miSouth (190°)4.6 mphClear
7:00 PM48.2 °F35.6 °F62 %29.89 in6.2 miSouth (190°)3.5 mphOvercast
7:30 PM48.2 °F37.4 °F66 %29.89 in6.2 miSSW (200°)5.8 mphOvercast
8:00 PM48.2 °F37.4 °F66 %29.92 in6.2 miWest (260°)4.6 mphMostly Cloudy
8:30 PM48.2 °F35.6 °F62 %29.92 in6.2 miWest (270°)4.6 mphMostly Cloudy
9:00 PM46.4 °F35.6 °F66 %29.92 in6.2 miWest (280°)4.6 mphOvercast
9:30 PM46.4 °F33.8 °F62 %29.95 in6.2 miWest (280°)3.5 mphOvercast
10:00 PM44.6 °F33.8 °F66 %29.95 in6.2 miWest (260°)3.5 mph
10:30 PM42.8 °F35.6 °F76 %29.95 in6.2 miSSW (210°)3.5 mph
11:00 PM42.8 °F35.6 °F76 %29.95 in6.2 miSSW (210°)3.5 mph
11:30 PM42.8 °F35.6 °F76 %29.95 in6.2 miSouth (180°)2.3 mph
Hourly data recorded from LFRN, located miles away from Rennes, France







STORIES FROM OUR PARTNERS